Weather reports worldwide

Advertisment
Badajoz/Talavera La Real, Spain (8330): temperature & dewpoint: 05.12.2019 10:00:00 - 11.12.2019 10:00:00 (CET)Badajoz/Talavera La Real, Spain (8330): wind speed: 05.12.2019 10:00:00 - 11.12.2019 10:00:00 (CET)Badajoz/Talavera La Real, Spain (8330): wind direction: 05.12.2019 10:00:00 - 11.12.2019 10:00:00 (CET)Badajoz/Talavera La Real, Spain (8330): reduced air pressure: 05.12.2019 10:00:00 - 11.12.2019 10:00:00 (CET)Badajoz/Talavera La Real, Spain (8330): visibility: 05.12.2019 10:00:00 - 11.12.2019 10:00:00 (CET)Badajoz/Talavera La Real, Spain (8330): precipitation: 05.12.2019 10:00:00 - 11.12.2019 10:00:00 (CET)
Date & Time tt [°C] td [°C] ff [km/h] ff [kn] dd ppp [hPa] vv [km] rr [mm]
11.12.2019 10:00:00 - - - - - - - -
11.12.2019 09:00:00 5,6 5,5 2 1 NNW 1027,3 - 0,0
11.12.2019 08:00:00 4,8 4,7 2 1 SSW 1026,8 - 0,0
11.12.2019 07:00:00 4,7 4,4 2 1 NNW 1026,5 0,1 -
11.12.2019 06:00:00 4,7 4,4 4 2 NW 1026,3 - 0,0
11.12.2019 05:00:00 5,3 5,0 2 1 ESE 1026,4 - 0,0
11.12.2019 04:00:00 5,3 5,0 2 1 S 1027,0 - -
11.12.2019 03:00:00 4,7 4,4 4 2 NNE 1027,3 - 0,0
11.12.2019 02:00:00 4,7 4,3 2 1 E 1027,6 - 0,0
11.12.2019 01:00:00 4,7 4,3 2 1 S 1028,0 - -
11.12.2019 00:00:00 5,2 4,6 0 0 N 1027,8 - 0,0
10.12.2019 23:00:00 6,0 5,4 4 2 WSW 1027,8 - 0,0
10.12.2019 22:00:00 7,7 6,9 5 3 SSE 1027,9 - -
10.12.2019 21:00:00 7,9 7,1 4 2 W 1028,4 - 0,0
10.12.2019 20:00:00 7,8 6,6 2 1 WNW 1028,0 - 0,0
10.12.2019 19:00:00 8,8 7,2 5 3 E 1027,8 15 -
10.12.2019 18:00:00 10,4 8,0 8 4 E 1027,5 - 0,0
10.12.2019 17:00:00 11,7 8,2 5 3 E 1028,1 - 0,0
10.12.2019 16:00:00 11,5 8,2 8 4 N 1028,3 15 -
10.12.2019 15:00:00 11,3 8,2 8 4 NNE 1028,6 - 0,0
10.12.2019 14:00:00 10,8 8,0 8 4 ENE 1029,5 - 0,0
10.12.2019 13:00:00 9,7 9,1 9 5 E 1030,5 10 -
10.12.2019 12:00:00 8,8 8,7 8 4 NE 1031,3 - 0,0
10.12.2019 11:00:00 6,8 6,7 5 3 N 1031,7 - 0,0
10.12.2019 10:00:00 6,4 6,3 5 3 ENE 1031,4 0,3 -
10.12.2019 09:00:00 5,9 5,8 5 3 E 1031,2 - 0,0
10.12.2019 08:00:00 5,0 4,9 4 2 NE 1030,9 - 0,0
10.12.2019 07:00:00 4,3 4,0 5 3 NE 1030,9 1,5 -
10.12.2019 06:00:00 4,0 3,7 4 2 E 1030,8 - 0,0
10.12.2019 05:00:00 4,6 4,2 5 3 E 1031,0 - 0,0
10.12.2019 04:00:00 4,6 4,3 2 1 SE 1031,0 - -
10.12.2019 03:00:00 4,5 4,1 4 2 SSE 1031,0 - 0,0
10.12.2019 02:00:00 4,8 4,2 2 1 W 1031,4 - 0,0
10.12.2019 01:00:00 5,3 4,6 2 1 N 1031,6 - -
10.12.2019 00:00:00 6,0 5,1 2 1 N 1031,6 - 0,0
09.12.2019 23:00:00 7,1 5,9 2 1 SE 1031,4 - 0,0
09.12.2019 22:00:00 7,9 6,2 4 2 E 1031,5 - -
09.12.2019 21:00:00 9,8 7,2 2 1 SW 1031,1 - 0,0
09.12.2019 20:00:00 10,0 7,6 0 0 N 1030,6 - 0,0
09.12.2019 19:00:00 12,1 7,8 4 2 SSE 1030,1 15 -
09.12.2019 18:00:00 13,9 8,9 4 2 E 1029,8 - 0,0
09.12.2019 17:00:00 15,7 8,4 8 4 N 1030,0 - 0,0
09.12.2019 16:00:00 16,7 8,1 4 2 ENE 1029,6 30 -
09.12.2019 15:00:00 16,3 9,2 5 3 NW 1029,8 - 0,0
09.12.2019 14:00:00 15,7 10,7 4 2 W 1030,3 - 0,0
09.12.2019 13:00:00 15,0 11,0 4 2 W 1031,2 25 -
09.12.2019 12:00:00 12,8 12,0 4 2 NNW 1031,9 - 0,0
09.12.2019 11:00:00 11,9 11,7 4 2 E 1031,6 - 0,0
09.12.2019 10:00:00 10,6 10,4 2 1 S 1031,2 9 -
09.12.2019 09:00:00 10,1 9,8 2 1 ESE 1030,4 - 0,0
09.12.2019 08:00:00 10,8 10,5 2 1 NNE 1030,0 - 0,0
09.12.2019 07:00:00 11,9 11,6 2 1 WSW 1029,2 10 -
09.12.2019 06:00:00 12,2 12,0 8 4 NW 1028,8 - 0,0
09.12.2019 05:00:00 12,1 11,9 4 2 W 1028,8 - 0,0
09.12.2019 04:00:00 12,3 12,0 5 3 N 1028,9 - -
09.12.2019 03:00:00 12,1 11,8 5 3 WNW 1028,4 - 0,0
09.12.2019 02:00:00 11,8 11,5 2 1 N 1028,3 - 0,0
09.12.2019 01:00:00 11,5 11,2 5 3 S 1028,6 - -
09.12.2019 00:00:00 11,4 10,9 0 0 N 1028,9 - 0,0
08.12.2019 23:00:00 11,4 10,9 4 2 ENE 1028,4 - 0,2
08.12.2019 22:00:00 11,3 10,8 4 2 E 1028,4 - -
08.12.2019 21:00:00 11,4 10,8 2 1 NNE 1028,3 - 0,2
08.12.2019 20:00:00 11,6 10,8 2 1 N 1027,9 - 0,0
08.12.2019 19:00:00 11,7 10,8 4 2 ENE 1027,7 5 -
08.12.2019 18:00:00 11,7 10,4 4 2 E 1027,4 - 0,2
08.12.2019 17:00:00 12,1 10,5 4 2 E 1027,2 - 0,0
08.12.2019 16:00:00 12,0 10,2 2 1 W 1027,0 6 -
08.12.2019 15:00:00 11,1 9,5 5 3 WNW 1027,0 - 0,0
08.12.2019 14:00:00 10,5 9,4 4 2 NNW 1027,4 - 0,0
08.12.2019 13:00:00 9,1 8,6 2 1 W 1028,1 3,5 -
08.12.2019 12:00:00 7,1 6,8 2 1 N 1028,9 - 0,0
08.12.2019 11:00:00 6,2 5,9 2 1 SSW 1029,0 - 0,0
08.12.2019 10:00:00 5,0 4,7 2 1 WNW 1028,7 0,2 -
08.12.2019 09:00:00 3,9 3,5 2 1 W 1028,3 - 0,0
08.12.2019 08:00:00 3,6 3,2 0 0 N 1027,9 - 0,0
08.12.2019 07:00:00 3,7 3,1 4 2 ESE 1027,1 0,5 -
08.12.2019 06:00:00 3,5 3,1 4 2 WNW 1027,2 - 0,0
08.12.2019 05:00:00 4,1 3,5 4 2 ESE 1027,2 - 0,0
08.12.2019 04:00:00 4,5 3,8 4 2 SE 1027,0 - -
08.12.2019 03:00:00 4,4 3,5 2 1 NW 1027,3 - 0,0
08.12.2019 02:00:00 6,0 5,0 2 1 SW 1027,1 - 0,0
08.12.2019 01:00:00 6,3 5,1 2 1 WSW 1027,3 - -
08.12.2019 00:00:00 7,8 6,3 4 2 WSW 1027,3 - 0,0
07.12.2019 23:00:00 8,3 6,8 4 2 WSW 1026,8 - 0,0
07.12.2019 22:00:00 9,3 7,2 5 3 SW 1026,4 - -
07.12.2019 21:00:00 9,7 7,5 2 1 WSW 1025,9 - 0,0
07.12.2019 20:00:00 10,7 7,9 5 3 W 1025,5 - 0,0
07.12.2019 19:00:00 12,4 8,3 8 4 S 1024,9 20 -
07.12.2019 18:00:00 14,8 8,5 4 2 SSE 1024,2 - 0,0
07.12.2019 17:00:00 16,5 8,5 4 2 NW 1023,8 - 0,0
07.12.2019 16:00:00 16,3 8,8 4 2 WNW 1023,5 25 -
07.12.2019 15:00:00 15,7 8,7 4 2 NNE 1023,6 - 0,0
07.12.2019 14:00:00 14,7 8,9 5 3 ESE 1024,2 - 0,0
07.12.2019 13:00:00 13,1 8,0 5 3 NE 1025,4 20 -
07.12.2019 12:00:00 11,4 7,7 9 5 ENE 1026,0 - 0,0
07.12.2019 11:00:00 8,7 7,3 8 4 N 1026,2 - 0,0
07.12.2019 10:00:00 6,0 5,7 2 1 SSE 1025,7 7 -
07.12.2019 09:00:00 3,2 2,6 2 1 W 1025,5 - 0,0
07.12.2019 08:00:00 3,4 2,8 4 2 SSW 1025,1 - 0,0
07.12.2019 07:00:00 4,3 3,6 2 1 SE 1024,5 15 -
07.12.2019 06:00:00 4,1 3,2 4 2 NE 1024,2 - 0,0
07.12.2019 05:00:00 5,1 4,2 2 1 SSE 1024,0 - 0,0
07.12.2019 04:00:00 5,4 4,5 2 1 W 1024,2 - -
07.12.2019 03:00:00 5,3 4,1 5 3 WNW 1023,9 - 0,0
07.12.2019 02:00:00 6,6 4,9 2 1 SSW 1023,6 - 0,0
07.12.2019 01:00:00 7,7 5,7 2 1 WNW 1024,0 - -
07.12.2019 00:00:00 8,3 6,1 2 1 E 1023,7 - 0,0
06.12.2019 23:00:00 8,7 6,5 5 3 WNW 1023,6 - 0,0
06.12.2019 22:00:00 9,1 6,5 5 3 W 1023,2 - -
06.12.2019 21:00:00 10,2 6,7 2 1 N 1022,6 - 0,0
06.12.2019 20:00:00 10,6 7,3 2 1 N 1022,0 - 0,0
06.12.2019 19:00:00 12,9 7,8 2 1 SE 1021,3 20 -
06.12.2019 18:00:00 14,6 8,1 8 4 NNE 1020,7 - 0,0
06.12.2019 17:00:00 17,2 8,1 9 5 NE 1020,4 - 0,0
06.12.2019 16:00:00 17,7 8,0 15 8 E 1020,2 25 -
06.12.2019 15:00:00 17,2 7,8 16 9 ENE 1020,7 - 0,0
06.12.2019 14:00:00 16,5 8,2 16 9 ENE 1021,2 - 0,0
06.12.2019 13:00:00 15,3 8,3 16 9 ENE 1022,1 25 -
06.12.2019 12:00:00 13,9 8,5 15 8 E 1022,8 - 0,0
06.12.2019 11:00:00 11,1 7,8 9 5 E 1023,2 - 0,0
06.12.2019 10:00:00 7,5 6,8 8 4 E 1022,9 25 -
06.12.2019 09:00:00 5,3 4,4 2 1 SE 1022,6 - 0,0
06.12.2019 08:00:00 5,7 4,5 5 3 ESE 1021,8 - 0,0
06.12.2019 07:00:00 5,9 4,9 2 1 E 1021,6 15 -
06.12.2019 06:00:00 6,1 4,7 4 2 WNW 1021,2 - 0,0
06.12.2019 05:00:00 6,5 5,0 9 5 N 1020,7 - 0,0
06.12.2019 04:00:00 6,9 5,2 4 2 W 1020,7 - -
06.12.2019 03:00:00 7,0 5,3 4 2 N 1020,4 - 0,0
06.12.2019 02:00:00 7,4 5,4 5 3 NW 1020,1 - 0,0
06.12.2019 01:00:00 8,5 5,9 15 8 E 1019,7 - -
06.12.2019 00:00:00 8,6 6,2 5 3 E 1020,0 - 0,0
05.12.2019 23:00:00 9,6 6,3 4 2 S 1020,1 - 0,0
05.12.2019 22:00:00 10,4 6,5 11 6 ENE 1019,4 - -
05.12.2019 21:00:00 10,5 6,6 13 7 NNE 1018,8 - 0,0
05.12.2019 20:00:00 10,6 6,7 9 5 NNE 1018,0 - 0,0
05.12.2019 19:00:00 12,7 7,6 9 5 NE 1017,2 25 -
05.12.2019 18:00:00 15,0 8,2 11 6 E 1016,3 - 0,0
05.12.2019 17:00:00 16,1 7,8 11 6 ENE 1015,8 - 0,0
05.12.2019 16:00:00 15,7 7,5 11 6 NE 1015,8 45 -
05.12.2019 15:00:00 16,4 7,1 16 9 NE 1015,8 - 0,0
05.12.2019 14:00:00 16,4 8,1 13 7 NE 1016,2 - 0,0
05.12.2019 13:00:00 15,7 8,4 9 5 E 1016,9 45 -
05.12.2019 12:00:00 13,1 7,5 8 4 NE 1017,5 - 0,0
05.12.2019 11:00:00 10,7 6,8 5 3 N 1017,4 - 0,0
05.12.2019 10:00:00 8,4 5,9 4 2 NNW 1016,9 45 -

tt = temperature
td = dewpoint
ff = wind speed
dd = wind direction
ppp = reduced air pressure
vv = visibility
rr = precipitation

Next stations